When you browse on this site, cookies collect data to enhance your experience and personalize the content and advertising you see.
Visit our Privacy Policy to learn more. By continuing to use the site, you agree to this use of cookies and data.
  • în România
  • Lista ţărilor
  • Pe 7 zile
  • Temperatura apei
  • Meteo pe hartă
  • Widget-uri
  • user-avatar
    Intrare

    Meteo pe oră la Mosul

    Astăzi, 18 Februarie, Marţi

    Timp Temperatura Precipitaţii Vânt Presiune Umiditate
    00:00 +8°C° 0 mm 5 m/s 735 mmHg 72%
    01:00 +8°C° 0 mm 4 m/s 735 mmHg 71%
    02:00 +8°C° 0 mm 4 m/s 735 mmHg 71%
    03:00 +7°C° 0 mm 4 m/s 735 mmHg 70%
    04:00 +7°C° 0 mm 4 m/s 735 mmHg 69%
    05:00 +7°C° 0 mm 4 m/s 735 mmHg 67%
    06:00 +7°C° 0 mm 4 m/s 736 mmHg 65%
    07:00 +7°C° 0 mm 4 m/s 736 mmHg 63%
    08:00 +8°C° 0 mm 4 m/s 736 mmHg 62%
    09:00 +11°C° 0 mm 4 m/s 736 mmHg 61%
    10:00 +12°C° 0 mm 5 m/s 736 mmHg 58%
    11:00 +14°C° 0 mm 5 m/s 736 mmHg 56%
    12:00 +16°C° 0 mm 5 m/s 736 mmHg 53%
    13:00 +17°C° 0 mm 5 m/s 736 mmHg 53%
    14:00 +17°C° 0 mm 5 m/s 735 mmHg 52%
    15:00 +19°C° 0 mm 5 m/s 735 mmHg 52%
    16:00 +17°C° 0 mm 5 m/s 735 mmHg 57%
    17:00 +15°C° 0 mm 5 m/s 735 mmHg 62%
    18:00 +14°C° 0 mm 5 m/s 735 mmHg 67%
    19:00 +13°C° 0 mm 5 m/s 735 mmHg 67%
    20:00 +12°C° 0 mm 5 m/s 735 mmHg 68%
    21:00 +10°C° 0 mm 5 m/s 735 mmHg 68%
    22:00 +10°C° 0 mm 5 m/s 735 mmHg 67%
    23:00 +11°C° 0 mm 4 m/s 735 mmHg 66%

    Mâine, 19 Februarie, Miercuri

    Timp Temperatura Precipitaţii Vânt Presiune Umiditate
    00:00 +11°C° 0 mm 4 m/s 734 mmHg 65%
    01:00 +10°C° 0 mm 4 m/s 734 mmHg 63%
    02:00 +10°C° 0 mm 4 m/s 734 mmHg 61%
    03:00 +9°C° 0 mm 5 m/s 734 mmHg 60%
    04:00 +9°C° 0.2 mm 5 m/s 733 mmHg 65%
    05:00 +9°C° 0.2 mm 5 m/s 733 mmHg 71%
    06:00 +8°C° 0.2 mm 5 m/s 732 mmHg 76%
    07:00 +9°C° 0.2 mm 5 m/s 732 mmHg 74%
    08:00 +9°C° 0.2 mm 5 m/s 732 mmHg 72%
    09:00 +11°C° 0.2 mm 4 m/s 732 mmHg 70%
    10:00 +12°C° 0.1 mm 5 m/s 731 mmHg 69%
    11:00 +13°C° 0.1 mm 6 m/s 731 mmHg 68%
    12:00 +14°C° 0.1 mm 7 m/s 730 mmHg 68%
    13:00 +14°C° 0.2 mm 7 m/s 730 mmHg 68%
    14:00 +14°C° 0.2 mm 7 m/s 729 mmHg 68%
    15:00 +14°C° 0.2 mm 7 m/s 728 mmHg 68%
    16:00 +12°C° 0.2 mm 7 m/s 728 mmHg 70%
    17:00 +12°C° 0.2 mm 7 m/s 727 mmHg 73%
    18:00 +11°C° 0.2 mm 8 m/s 727 mmHg 75%
    19:00 +11°C° 0.3 mm 8 m/s 727 mmHg 77%
    20:00 +11°C° 0.3 mm 8 m/s 726 mmHg 80%
    21:00 +11°C° 0.3 mm 8 m/s 726 mmHg 82%
    22:00 +11°C° 0.3 mm 7 m/s 726 mmHg 82%
    23:00 +11°C° 0.3 mm 6 m/s 726 mmHg 82%

    Poimâine, 20 Februarie, Joi

    Timp Temperatura Precipitaţii Vânt Presiune Umiditate
    00:00 +12°C° 0.3 mm 5 m/s 725 mmHg 82%
    01:00 +10°C° 0.7 mm 5 m/s 725 mmHg 82%
    02:00 +10°C° 0.7 mm 5 m/s 725 mmHg 82%
    03:00 +10°C° 0.7 mm 5 m/s 724 mmHg 82%
    04:00 +11°C° 0 mm 4 m/s 725 mmHg 80%
    05:00 +11°C° 0 mm 4 m/s 725 mmHg 79%
    06:00 +11°C° 0 mm 4 m/s 725 mmHg 78%
    07:00 +11°C° 0.4 mm 4 m/s 725 mmHg 77%
    08:00 +12°C° 0.4 mm 4 m/s 726 mmHg 76%
    09:00 +12°C° 0.4 mm 4 m/s 726 mmHg 76%
    10:00 +13°C° 0.2 mm 4 m/s 726 mmHg 74%
    11:00 +14°C° 0.2 mm 4 m/s 727 mmHg 72%
    12:00 +15°C° 0.2 mm 4 m/s 727 mmHg 71%
    13:00 +17°C° 0.4 mm 3 m/s 727 mmHg 69%
    14:00 +17°C° 0.4 mm 3 m/s 726 mmHg 67%
    15:00 +17°C° 0.4 mm 3 m/s 726 mmHg 66%
    16:00 +17°C° 0.3 mm 3 m/s 727 mmHg 70%
    17:00 +16°C° 0.3 mm 2 m/s 727 mmHg 74%
    18:00 +15°C° 0.3 mm 2 m/s 727 mmHg 79%
    19:00 +14°C° 0 mm 2 m/s 728 mmHg 79%
    20:00 +14°C° 0 mm 2 m/s 728 mmHg 80%
    21:00 +13°C° 0 mm 2 m/s 729 mmHg 81%
    22:00 +13°C° 0 mm 1 m/s 729 mmHg 81%
    23:00 +13°C° 0 mm 1 m/s 729 mmHg 82%

    21 Februarie, Vineri

    Timp Temperatura Precipitaţii Vânt Presiune Umiditate
    00:00 +12°C° 0 mm 1 m/s 730 mmHg 82%
    01:00 +12°C° 0 mm 1 m/s 730 mmHg 82%
    02:00 +12°C° 0 mm 1 m/s 730 mmHg 82%
    03:00 +12°C° 0 mm 1 m/s 730 mmHg 81%
    04:00 +12°C° 0 mm 1 m/s 730 mmHg 81%
    05:00 +12°C° 0 mm 1 m/s 730 mmHg 81%
    06:00 +12°C° 0 mm 1 m/s 731 mmHg 81%
    07:00 +12°C° 0 mm 1 m/s 731 mmHg 79%
    08:00 +13°C° 0 mm 1 m/s 732 mmHg 76%
    09:00 +13°C° 0 mm 1 m/s 732 mmHg 73%
    16:00 +16°C° 0 mm 2 m/s 732 mmHg 61%
    17:00 +15°C° 0 mm 2 m/s 732 mmHg 64%
    18:00 +14°C° 0 mm 2 m/s 732 mmHg 66%
    19:00 +14°C° 0 mm 1 m/s 732 mmHg 68%
    20:00 +13°C° 0 mm 1 m/s 732 mmHg 70%
    21:00 +13°C° 0 mm 1 m/s 733 mmHg 72%
    22:00 +12°C° 0 mm 1 m/s 733 mmHg 72%
    23:00 +12°C° 0 mm 1 m/s 733 mmHg 71%

    22 Februarie, Sâmbătă

    Timp Temperatura Precipitaţii Vânt Presiune Umiditate
    00:00 +12°C° 0 mm 1 m/s 733 mmHg 71%
    01:00 +12°C° 0 mm 2 m/s 733 mmHg 72%
    02:00 +11°C° 0 mm 3 m/s 732 mmHg 73%
    03:00 +11°C° 0 mm 3 m/s 732 mmHg 74%
    04:00 +10°C° 0 mm 3 m/s 732 mmHg 75%
    05:00 +10°C° 0 mm 4 m/s 732 mmHg 76%
    06:00 +10°C° 0 mm 4 m/s 732 mmHg 77%
    07:00 +11°C° 0 mm 4 m/s 732 mmHg 75%
    08:00 +12°C° 0 mm 4 m/s 732 mmHg 73%
    09:00 +12°C° 0 mm 4 m/s 732 mmHg 70%
    10:00 +14°C° 0 mm 4 m/s 732 mmHg 66%
    11:00 +15°C° 0 mm 4 m/s 732 mmHg 61%
    12:00 +17°C° 0 mm 4 m/s 732 mmHg 56%
    13:00 +17°C° 0.5 mm 3 m/s 732 mmHg 54%
    14:00 +18°C° 0.5 mm 3 m/s 731 mmHg 52%
    15:00 +18°C° 0.5 mm 2 m/s 731 mmHg 49%
    16:00 +17°C° 0.2 mm 2 m/s 731 mmHg 55%
    17:00 +16°C° 0.2 mm 3 m/s 731 mmHg 60%
    18:00 +14°C° 0.2 mm 3 m/s 731 mmHg 65%
    19:00 +13°C° 0.2 mm 3 m/s 731 mmHg 70%
    20:00 +12°C° 0.2 mm 4 m/s 732 mmHg 75%
    21:00 +12°C° 0.2 mm 4 m/s 732 mmHg 81%
    22:00 +11°C° 0 mm 4 m/s 732 mmHg 82%
    23:00 +11°C° 0 mm 3 m/s 732 mmHg 83%

    23 Februarie, Duminică

    Timp Temperatura Precipitaţii Vânt Presiune Umiditate
    00:00 +12°C° 0 mm 2 m/s 732 mmHg 85%
    01:00 +11°C° 0 mm 3 m/s 732 mmHg 83%
    02:00 +11°C° 0 mm 3 m/s 732 mmHg 82%
    03:00 +11°C° 0 mm 3 m/s 732 mmHg 81%
    04:00 +11°C° 0.1 mm 3 m/s 732 mmHg 81%
    05:00 +11°C° 0.1 mm 3 m/s 732 mmHg 80%
    06:00 +11°C° 0.1 mm 3 m/s 732 mmHg 80%
    07:00 +11°C° 0.1 mm 4 m/s 732 mmHg 79%
    08:00 +10°C° 0.1 mm 5 m/s 732 mmHg 79%
    09:00 +11°C° 0.1 mm 6 m/s 732 mmHg 78%
    10:00 +13°C° 0 mm 6 m/s 732 mmHg 74%
    11:00 +14°C° 0 mm 6 m/s 732 mmHg 69%
    12:00 +15°C° 0 mm 6 m/s 732 mmHg 64%
    13:00 +16°C° 0.1 mm 6 m/s 732 mmHg 62%
    14:00 +16°C° 0.1 mm 6 m/s 731 mmHg 59%
    15:00 +17°C° 0.1 mm 5 m/s 731 mmHg 56%
    16:00 +16°C° 0.1 mm 5 m/s 731 mmHg 60%
    17:00 +15°C° 0.1 mm 5 m/s 731 mmHg 64%
    18:00 +14°C° 0.1 mm 5 m/s 731 mmHg 67%
    19:00 +13°C° 0 mm 5 m/s 731 mmHg 69%
    20:00 +13°C° 0 mm 5 m/s 731 mmHg 71%
    21:00 +12°C° 0 mm 5 m/s 731 mmHg 72%
    22:00 +12°C° 0 mm 4 m/s 732 mmHg 74%
    23:00 +11°C° 0 mm 4 m/s 732 mmHg 76%
    Arată mai mult